Wind_Speed
24 24 24 23 22 21 19 17 16 15 12 10 9 8 8 10 12 14 16 18 21 24 27 29 30 31 32 33 34 34 34 35 36 37 36 35 36 36 36 37 37 36 36
25 25 25 25 24 22 21 19 18 17 15 13 10 8 6 6 8 10 13 15 17 20 23 25 28 29 31 31 33 34 34 35 35 35 36 36 36 36 35 36 36 37 37
26 25 25 25 25 24 22 21 21 19 17 15 12 9 6 4 5 7 10 12 14 16 19 22 24 26 27 29 30 32 33 33 34 33 34 35 36 35 35 35 36 36 35
25 25 25 25 25 25 23 22 22 21 20 18 14 11 7 4 3 4 7 8 10 12 15 18 21 23 24 26 29 31 32 33 33 33 33 33 35 36 36 36 35 34 34
25 25 25 25 25 25 24 23 23 22 21 19 17 13 10 7 4 3 4 6 7 9 12 15 17 19 21 23 25 28 29 31 31 31 32 32 33 33 33 33 34 34 34
24 24 24 25 26 26 25 24 23 23 23 22 19 16 12 9 7 5 3 3 5 7 9 12 14 16 17 19 21 24 26 28 29 29 30 30 30 30 31 31 31 32 32
23 23 23 24 25 25 25 24 24 24 23 23 22 18 15 11 9 7 5 3 3 4 6 8 11 13 15 16 17 20 22 24 25 26 26 27 28 28 28 29 29 30 29
22 22 23 23 24 24 24 24 24 23 23 23 22 20 17 14 12 9 7 5 3 3 4 6 8 10 11 14 15 17 19 21 24 25 24 25 27 27 26 27 28 28 29
21 21 22 22 23 23 23 23 23 23 23 22 22 21 19 17 14 12 10 8 6 4 2 3 6 8 9 10 12 14 16 18 21 21 20 21 24 24 24 25 26 27 27
20 20 21 21 22 22 22 22 22 22 22 21 21 20 19 17 16 14 11 10 8 6 3 1 2 4 5 7 9 11 13 14 17 18 18 18 19 21 21 22 23 24 25
19 20 20 20 21 21 21 21 21 21 21 20 20 20 19 18 16 15 13 12 10 7 5 2 1 1 2 5 7 8 9 11 13 15 15 16 17 18 19 19 20 21 21
19 19 20 20 20 19 20 20 20 20 19 19 19 19 18 18 17 15 14 13 11 9 7 4 3 1 0 2 3 4 6 8 10 11 12 13 14 16 16 17 18 19 19
20 19 19 19 19 19 18 19 19 19 19 18 18 18 17 17 16 15 14 12 12 10 8 6 4 2 1 0 2 3 4 6 8 9 10 11 11 12 13 14 15 16 17
20 20 20 19 19 19 18 18 18 18 18 17 17 17 16 15 15 14 13 12 11 10 8 7 5 4 2 1 1 2 3 4 6 8 8 8 9 10 11 12 13 13 14
21 21 21 20 20 19 19 18 17 17 17 17 16 16 15 14 14 13 12 11 10 9 8 7 5 3 3 2 0 1 2 4 5 6 7 7 8 9 9 9 10 12 13
22 22 22 21 21 20 19 19 18 18 17 17 16 16 15 14 13 12 12 11 10 9 8 6 5 4 3 2 1 1 3 3 4 5 7 7 8 8 8 9 9 10 10
24 23 23 23 22 21 21 20 19 19 18 17 17 16 15 14 13 12 11 10 9 8 7 6 4 3 2 2 1 1 2 3 4 5 6 6 7 8 9 9 9 9 9
26 25 25 24 24 23 22 22 21 20 19 19 18 17 16 15 14 13 12 11 10 9 8 7 5 4 3 2 2 2 3 3 4 5 6 7 7 7 7 8 8 8 9
28 27 27 27 26 25 25 24 24 23 22 21 20 19 18 17 17 15 15 14 13 11 10 9 8 7 6 5 4 4 4 5 6 6 7 7 8 8 8 8 8 9 9
31 30 30 30 29 29 28 27 26 26 25 24 23 22 21 20 19 19 18 17 16 15 13 12 11 11 9 8 8 7 7 7 7 8 8 8 8 9 9 9 9 9 9
33 33 33 33 32 32 32 31 30 29 28 28 27 26 24 23 22 22 21 20 19 18 17 16 16 15 14 13 12 11 11 11 11 11 11 11 11 10 10 11 11 11 11
36 36 36 36 35 35 35 35 34 33 32 32 31 30 29 27 26 26 25 24 23 22 21 20 20 19 18 17 17 16 15 15 14 14 14 14 14 14 13 13 13 14 14
39 39 39 39 39 38 38 38 38 37 37 36 35 34 33 32 31 30 29 28 27 27 26 25 24 23 23 22 21 20 19 19 18 18 18 18 17 17 17 17 17 17 17
41 41 42 42 42 41 41 41 41 41 41 40 39 39 38 37 35 35 34 33 32 31 30 29 28 28 27 26 25 24 23 23 22 22 22 21 21 21 20 20 20 19 19
44 44 45 45 45 45 45 45 45 45 45 44 44 43 42 41 40 39 38 38 37 36 35 34 32 32 31 30 29 28 27 27 26 25 25 24 24 23 23 22 22 22 21
46 47 47 48 48 48 48 48 49 49 49 49 48 48 47 47 45 44 43 42 41 40 39 38 37 36 35 34 33 32 32 31 30 29 28 27 27 26 26 25 25 24 23
Wind_Direction
22 21 20 18 15 13 12 10 8 4 358 348 332 310 281 260 248 243 238 235 235 235 235 235 236 236 237 237 237 238 238 237 238 239 240 241 240 239 240 242 244 245 244
23 23 23 21 20 18 18 17 14 9 5 0 350 332 305 277 257 246 240 237 237 237 236 236 235 236 237 237 238 240 240 239 239 240 241 241 241 240 241 243 244 245 244
25 24 24 24 24 24 23 22 20 17 14 9 2 354 339 307 271 251 243 239 237 237 235 234 234 235 236 237 239 240 239 238 239 241 241 241 240 241 242 243 244 244 244
24 24 25 24 24 25 25 24 23 22 21 19 16 14 8 350 307 264 248 243 240 237 233 231 231 233 236 238 239 240 241 239 239 241 242 241 240 241 243 243 243 244 245
23 23 23 23 24 25 25 25 25 24 23 21 22 21 21 15 358 310 270 254 246 239 233 230 230 232 236 237 238 239 239 238 238 239 240 241 241 240 240 240 241 244 246
21 22 22 22 22 24 24 25 24 24 24 24 24 23 24 24 19 10 335 289 260 244 238 234 234 236 237 237 237 237 237 237 237 237 239 239 240 238 239 239 240 242 245
18 19 19 20 20 22 23 23 24 25 25 25 26 26 27 26 23 19 11 348 294 263 248 240 238 236 236 236 236 236 236 236 235 237 238 238 238 237 237 238 239 240 241
15 16 16 17 18 19 20 21 23 24 24 25 27 28 29 30 28 24 17 9 349 300 258 239 233 231 235 234 235 236 236 236 235 234 233 233 234 233 234 236 237 239 240
9 11 13 14 15 16 18 19 20 21 22 23 25 27 29 30 30 28 25 22 16 8 327 246 233 226 230 230 234 235 232 231 231 229 229 231 229 229 231 234 236 237 239
3 5 6 8 10 12 14 15 17 18 19 21 22 24 26 28 28 28 26 23 22 14 4 325 228 225 228 227 229 230 224 222 223 227 228 226 223 225 229 231 232 236 239
356 358 359 1 3 5 8 11 12 14 16 18 20 21 23 24 26 28 28 27 22 19 16 14 352 243 225 222 226 223 218 217 217 222 224 221 222 224 226 228 230 233 237
347 349 351 353 355 357 359 3 6 8 11 13 15 16 19 21 23 26 28 29 28 29 30 36 42 44 230 214 217 219 218 216 216 219 222 221 221 222 224 226 229 232 236
339 341 343 345 347 349 351 354 357 360 2 4 7 9 11 14 18 22 24 28 30 32 37 40 40 37 50 185 196 199 205 212 216 219 219 222 222 219 221 224 227 227 227
332 334 335 337 339 341 342 344 347 350 353 354 357 0 3 6 9 13 17 22 25 29 35 40 41 44 43 58 204 205 203 209 209 210 212 209 209 214 216 218 218 220 225
324 326 328 329 331 333 334 334 336 340 343 345 348 350 353 356 360 5 9 12 14 19 25 28 28 26 21 29 88 184 190 196 200 202 202 203 208 207 206 207 214 220 225
315 317 319 321 322 324 325 326 326 328 330 333 336 338 341 343 346 350 354 358 2 6 9 13 18 24 24 28 56 156 173 181 189 197 204 207 209 211 213 217 219 222 227
309 309 310 312 313 314 315 316 317 318 319 320 322 324 327 328 330 333 337 339 342 346 351 357 359 360 7 12 18 168 183 191 193 199 206 212 216 218 220 223 224 225 228
302 303 303 304 305 306 306 307 307 308 309 309 310 311 312 313 313 314 317 319 320 321 321 323 326 324 312 300 286 257 236 227 219 220 221 217 215 215 219 223 225 229 232
297 297 297 298 298 299 299 299 299 299 300 301 300 300 300 300 300 300 301 302 302 301 299 297 295 294 289 280 269 259 252 245 234 228 226 225 224 224 225 226 229 234 236
293 293 292 292 293 293 293 293 293 293 292 292 292 292 292 291 290 289 289 289 289 289 287 284 282 279 276 273 267 259 255 249 243 238 234 233 233 232 232 233 236 240 243
290 290 289 289 288 288 288 287 287 287 286 285 284 284 285 284 283 282 281 280 280 280 279 277 275 273 271 269 265 261 257 252 248 247 246 243 241 240 241 242 244 247 250
289 288 287 286 285 284 284 283 282 282 281 280 279 278 278 278 277 277 276 275 274 273 273 272 270 269 268 266 264 261 258 255 251 249 249 249 248 248 248 249 251 254 255
288 287 286 285 284 282 281 280 279 278 277 276 275 274 273 272 272 272 271 270 269 268 268 267 266 265 264 263 262 260 258 256 253 251 250 250 251 251 251 253 255 256 257
288 287 286 284 283 281 280 278 276 275 274 273 271 271 270 269 267 267 267 266 266 265 264 263 263 262 261 260 259 258 257 256 254 253 252 252 253 253 253 255 256 256 257
288 287 286 285 284 281 279 277 275 273 272 271 269 268 267 266 265 264 263 263 262 262 261 260 260 260 259 258 257 257 256 255 254 254 254 254 254 254 254 255 256 257 257
288 287 286 285 284 282 280 277 274 272 271 269 268 267 265 264 263 262 261 260 260 259 258 258 257 256 256 256 255 255 254 254 254 254 254 253 254 254 254 255 256 256 256
Height
5799 5794 5789 5783 5778 5774 5769 5766 5762 5758 5755 5753 5750 5749 5748 5748 5749 5750 5752 5754 5756 5759 5762 5766 5769 5773 5776 5780 5783 5786 5790 5793 5797 5800 5804 5807 5810 5814 5817 5820 5823 5826 5829
5801 5796 5791 5785 5780 5775 5770 5766 5762 5758 5755 5751 5749 5747 5746 5745 5746 5747 5748 5750 5752 5754 5756 5759 5763 5766 5769 5773 5775 5779 5782 5786 5789 5792 5796 5799 5803 5806 5809 5812 5815 5817 5820
5803 5798 5793 5788 5782 5777 5772 5768 5764 5759 5755 5751 5748 5746 5744 5744 5744 5744 5745 5746 5748 5749 5751 5754 5757 5760 5763 5766 5768 5771 5774 5778 5781 5785 5788 5791 5795 5798 5801 5804 5806 5809 5812
5806 5801 5795 5790 5785 5780 5775 5770 5766 5761 5757 5753 5749 5746 5744 5743 5743 5743 5743 5744 5744 5745 5747 5749 5751 5754 5757 5759 5762 5764 5767 5770 5774 5777 5780 5783 5786 5789 5792 5795 5798 5801 5804
5808 5803 5798 5793 5788 5782 5777 5773 5768 5763 5759 5754 5750 5747 5745 5744 5743 5742 5742 5742 5742 5742 5743 5745 5747 5749 5751 5753 5755 5758 5760 5763 5766 5769 5772 5775 5778 5782 5785 5787 5790 5793 5796
5811 5806 5801 5796 5790 5785 5780 5775 5770 5766 5761 5757 5752 5749 5746 5744 5743 5742 5741 5740 5740 5740 5741 5741 5743 5744 5746 5747 5749 5751 5754 5757 5760 5762 5765 5769 5771 5774 5777 5780 5783 5786 5789
5813 5808 5803 5798 5793 5788 5783 5778 5773 5768 5764 5759 5755 5751 5748 5745 5744 5742 5741 5739 5739 5738 5738 5739 5739 5740 5741 5743 5744 5746 5748 5751 5754 5757 5759 5762 5765 5767 5770 5773 5776 5779 5781
5815 5810 5805 5800 5796 5791 5786 5781 5776 5771 5767 5762 5758 5754 5750 5748 5745 5743 5741 5740 5738 5737 5737 5736 5737 5737 5738 5739 5740 5742 5743 5746 5748 5751 5753 5755 5758 5761 5764 5767 5769 5771 5774
5816 5812 5807 5803 5798 5793 5789 5784 5779 5774 5770 5765 5761 5757 5754 5750 5747 5745 5742 5740 5738 5737 5736 5735 5735 5735 5736 5736 5737 5738 5739 5741 5743 5745 5748 5750 5752 5755 5758 5760 5763 5766 5768
5817 5813 5809 5804 5800 5795 5791 5786 5782 5777 5773 5768 5764 5760 5756 5753 5750 5747 5744 5741 5739 5737 5736 5734 5734 5734 5734 5735 5735 5735 5736 5738 5739 5741 5743 5746 5748 5750 5753 5755 5758 5760 5762
5817 5813 5809 5805 5801 5797 5793 5788 5784 5780 5775 5771 5767 5763 5759 5755 5752 5749 5746 5743 5741 5738 5736 5735 5734 5733 5733 5733 5734 5734 5735 5736 5737 5739 5740 5742 5744 5747 5749 5751 5753 5756 5758
5817 5813 5809 5805 5801 5798 5794 5790 5786 5782 5778 5774 5770 5766 5762 5758 5755 5751 5748 5745 5742 5740 5738 5736 5735 5735 5734 5734 5733 5733 5734 5735 5736 5737 5738 5740 5742 5744 5746 5747 5749 5751 5753
5815 5812 5808 5805 5801 5797 5794 5790 5787 5783 5779 5775 5772 5768 5764 5760 5757 5754 5750 5748 5745 5742 5740 5738 5737 5736 5735 5734 5734 5734 5734 5734 5735 5736 5737 5738 5739 5741 5743 5744 5746 5748 5749
5813 5810 5807 5803 5800 5797 5793 5790 5786 5783 5779 5776 5773 5769 5765 5762 5759 5756 5753 5750 5747 5744 5742 5740 5738 5737 5736 5735 5734 5734 5734 5734 5734 5735 5736 5737 5738 5739 5741 5742 5743 5745 5746
5810 5807 5804 5801 5798 5795 5792 5788 5785 5782 5779 5776 5773 5769 5766 5763 5760 5757 5754 5752 5749 5746 5744 5742 5740 5739 5737 5736 5735 5734 5734 5734 5734 5735 5735 5736 5737 5738 5739 5740 5741 5743 5744
5806 5803 5800 5798 5795 5792 5789 5786 5783 5781 5778 5775 5772 5769 5766 5763 5760 5758 5755 5753 5750 5748 5745 5743 5742 5740 5738 5737 5736 5735 5735 5734 5734 5735 5735 5736 5737 5737 5738 5739 5739 5740 5741
5801 5798 5796 5793 5791 5788 5785 5783 5780 5778 5775 5772 5770 5767 5765 5762 5760 5757 5755 5753 5750 5748 5746 5744 5742 5741 5739 5738 5737 5736 5735 5735 5735 5735 5735 5735 5735 5736 5737 5737 5738 5738 5739
5795 5792 5790 5788 5785 5783 5781 5778 5776 5773 5771 5769 5767 5764 5762 5760 5758 5756 5753 5751 5749 5747 5745 5744 5742 5741 5739 5738 5737 5736 5735 5735 5734 5734 5734 5734 5734 5735 5735 5736 5736 5736 5737
5787 5785 5783 5781 5779 5776 5774 5772 5770 5768 5766 5764 5762 5760 5758 5756 5754 5752 5750 5749 5747 5745 5744 5742 5741 5739 5738 5737 5736 5735 5735 5734 5733 5733 5733 5733 5733 5733 5734 5734 5734 5734 5735
5779 5776 5774 5772 5771 5768 5767 5765 5763 5761 5760 5758 5756 5755 5753 5751 5750 5748 5746 5745 5743 5742 5741 5739 5738 5737 5736 5735 5734 5734 5733 5732 5732 5732 5731 5731 5731 5731 5731 5732 5732 5732 5732
5768 5767 5765 5763 5761 5759 5758 5756 5754 5753 5751 5750 5749 5747 5746 5745 5743 5742 5741 5740 5738 5737 5736 5735 5734 5733 5732 5732 5731 5730 5730 5729 5729 5729 5729 5729 5728 5728 5729 5729 5729 5729 5729
5757 5755 5753 5751 5750 5748 5747 5745 5744 5743 5741 5740 5739 5738 5737 5736 5736 5735 5734 5733 5732 5731 5730 5729 5729 5728 5727 5727 5726 5726 5725 5725 5725 5725 5725 5725 5725 5725 5725 5725 5725 5725 5725
5744 5742 5740 5739 5737 5736 5734 5733 5732 5731 5730 5729 5728 5727 5727 5726 5726 5725 5725 5724 5723 5723 5722 5722 5722 5721 5721 5720 5720 5720 5720 5719 5719 5719 5720 5720 5720 5720 5720 5720 5720 5720 5720
5730 5728 5726 5725 5723 5722 5720 5719 5718 5717 5716 5715 5715 5714 5714 5714 5714 5714 5714 5713 5713 5713 5713 5713 5713 5713 5712 5712 5712 5712 5712 5712 5712 5713 5713 5713 5713 5714 5714 5714 5714 5714 5714
5716 5714 5712 5710 5708 5706 5705 5704 5702 5702 5701 5700 5700 5700 5700 5700 5700 5701 5701 5701 5701 5702 5702 5702 5702 5702 5702 5703 5703 5704 5704 5704 5704 5705 5705 5705 5706 5706 5706 5707 5707 5707 5707
5700 5698 5695 5693 5691 5689 5687 5686 5685 5684 5683 5683 5683 5683 5683 5684 5684 5685 5686 5686 5687 5688 5688 5689 5690 5690 5691 5691 5692 5693 5694 5694 5695 5695 5696 5697 5697 5698 5698 5699 5699 5699 5700